Location: Acton
(51.4942°N, 0.2232°W)
Time: 11:21:49
(UTC+00:00)

Nadezhda 4 Rocket - Visible Passes

Search period start: 20 June 2021 00:00
Search period end: 30 June 2021 00:00
Orbit: 948 x 993 km, 82.9° (Epoch: 19 June)

Date Brightness Start Highest point End Pass type
(mag) Time Alt. Az. Time Alt. Az. Time Alt. Az.
20 Jun 4.9 00:30:48 14° SSE 00:35:33 40° E 00:41:11 10° NNE visible
20 Jun 4.6 02:15:22 12° SW 02:20:49 42° WNW 02:26:38 10° N visible
20 Jun 6.1 23:13:10 10° E 23:15:20 12° ENE 23:17:31 10° NE visible
21 Jun 4.2 00:54:45 18° S 00:59:24 64° E 01:05:26 10° NNE visible
21 Jun 5.3 02:40:03 10° WSW 02:45:11 27° WNW 02:50:19 10° N visible
21 Jun 5.7 23:34:31 10° SE 23:38:49 20° E 23:43:06 10° NE visible
22 Jun 4.0 01:18:40 18° SSW 01:23:22 81° W 01:29:32 10° N visible
22 Jun 5.1 23:58:02 14° SE 00:02:26 33° E 00:07:48 10° NNE visible
23 Jun 4.4 01:42:35 15° SW 01:47:30 51° WNW 01:53:28 10° N visible
24 Jun 4.4 00:21:56 19° SSE 00:26:13 53° E 00:32:09 10° NNE visible
24 Jun 5.1 02:06:30 11° SW 02:11:48 32° WNW 02:17:15 10° N visible
24 Jun 5.9 23:02:09 10° ESE 23:05:48 17° ENE 23:09:26 10° NE visible
25 Jun 4.0 00:45:50 21° S 00:50:08 84° E 00:56:18 10° N visible
25 Jun 5.6 02:31:44 10° WSW 02:36:16 21° WNW 02:40:49 10° NNW visible
25 Jun 5.3 23:25:09 13° SE 23:29:22 27° E 23:34:20 10° NNE visible
26 Jun 4.2 01:09:42 19° SSW 01:14:13 61° WNW 01:20:18 10° N visible
26 Jun 6.0 02:57:57 10° W 03:00:55 14° NW 03:03:53 10° NNW visible
26 Jun 4.7 23:49:01 19° SSE 23:53:04 43° E 23:58:49 10° NNE visible
27 Jun 4.8 01:33:35 14° SW 01:38:26 39° WNW 01:44:09 10° N visible
27 Jun 6.0 22:30:04 10° ESE 22:32:48 13° ENE 22:35:33 10° NE visible
28 Jun 4.1 00:12:52 22° S 00:16:56 70° E 00:23:02 10° NNE visible
28 Jun 5.4 01:57:53 10° WSW 02:02:50 25° WNW 02:07:49 10° N visible
28 Jun 5.5 22:52:10 11° SE 22:56:18 22° E 23:00:50 10° NNE visible
29 Jun 4.0 00:36:43 21° SSW 00:40:56 74° W 00:47:06 10° N visible
29 Jun 5.9 02:23:41 10° W 02:27:25 16° NW 02:31:09 10° NNW visible
29 Jun 4.9 23:16:00 17° SE 23:19:57 36° E 23:25:26 10° NNE visible
